RH
82 83 85 86 88 84 76 70 60 59 62 66 58 61 61 61 63 70 74 78 80 82 83 87 84 88 94 96 96 93 91 95 96 79 70 64 63 61 60 63 67 66 68
86 86 87 84 79 75 65 51 57 55 62 55 64 62 60 62 66 71 74 70 79 82 80 80 85 81 94 94 93 88 76 72 68 68 66 67 67 65 66 67 59 54 63
83 82 83 71 69 56 53 53 58 61 65 65 63 62 63 66 65 69 72 73 78 81 78 81 79 79 86 86 80 77 70 59 69 74 71 71 70 67 64 66 68 67 61
80 78 72 77 59 59 62 64 66 63 64 65 63 65 66 64 67 68 68 76 81 81 81 83 82 83 82 79 75 73 65 68 71 75 76 72 69 65 72 77 66 58 60
79 74 74 69 70 74 73 70 72 67 64 63 64 72 76 78 64 72 73 79 83 84 84 84 82 77 71 69 62 67 67 72 76 78 75 70 67 72 70 68 70 70 70
81 77 77 80 77 79 75 71 68 69 76 82 84 86 89 66 73 80 82 83 82 80 78 76 68 67 72 74 75 64 67 79 81 81 75 72 71 72 76 79 82 82 76
82 80 79 76 67 71 74 74 81 88 90 90 93 88 82 73 78 82 86 87 82 80 77 72 67 56 71 70 76 77 76 71 68 79 80 75 78 75 72 80 80 83 82
74 73 72 72 79 81 85 90 93 93 95 96 89 84 77 74 82 85 88 90 83 79 76 74 72 67 71 75 78 76 68 65 66 64 69 69 74 72 76 73 82 84 77
80 82 81 85 88 90 93 95 96 96 92 88 80 77 80 81 82 84 89 93 82 76 70 73 73 72 71 73 78 75 70 68 63 63 62 68 68 67 68 78 84 88 88
92 89 88 89 90 93 95 93 91 90 86 76 78 80 80 87 82 84 88 96 88 79 75 75 79 74 76 78 88 85 87 74 70 61 62 66 69 71 70 70 73 93 91
96 94 92 91 93 93 92 91 89 88 86 88 86 86 85 85 84 82 85 96 92 87 80 76 78 81 82 76 78 88 86 75 81 74 72 79 77 74 70 65 68 81 91
90 89 87 86 82 78 87 89 88 88 89 89 92 89 91 88 84 84 86 89 92 93 87 84 85 80 92 81 80 82 80 90 94 95 96 95 92 86 71 64 69 77 79
82 83 84 83 83 86 89 89 88 89 96 92 92 93 90 91 93 84 86 89 91 96 91 87 86 91 95 95 84 82 87 94 97 100 98 93 88 76 66 78 75 73 72
84 87 89 89 90 89 90 92 95 96 96 92 93 93 90 88 93 91 91 94 94 95 96 92 92 94 95 97 93 93 93 93 93 94 94 90 86 87 86 84 89 85 88
92 93 94 95 94 95 92 94 94 93 92 90 90 91 91 90 83 84 86 91 94 93 98 95 98 98 97 95 95 96 96 96 96 95 96 94 89 87 87 87 90 90 95
92 96 98 98 98 95 97 93 84 86 87 87 88 91 88 86 84 86 85 97 96 98 98 98 97 96 96 94 95 96 95 96 92 94 96 94 92 90 88 86 90 92 94
97 94 91 91 91 92 89 88 90 76 70 73 73 74 81 85 86 88 95 98 99 99 98 98 96 95 94 95 94 95 95 92 90 91 94 94 93 90 92 89 92 91 90
84 89 93 95 96 96 97 95 94 94 94 88 76 77 78 79 80 85 91 98 98 99 93 90 88 91 93 93 95 95 95 96 95 94 96 96 95 93 93 93 93 95 91
86 92 94 98 98 97 94 88 84 90 90 88 84 81 82 82 80 83 83 98 97 96 86 90 92 94 90 93 95 97 97 96 96 97 96 94 95 92 94 93 94 97 96
84 89 94 93 91 92 90 86 84 90 90 91 91 91 86 86 89 91 94 96 96 97 98 95 90 88 94 96 96 96 96 97 96 96 96 95 95 94 95 95 97 94 91
90 90 89 89 90 88 92 94 91 93 93 91 91 90 86 92 93 94 94 94 94 93 96 97 98 98 98 96 96 97 96 96 96 94 94 94 95 95 95 95 95 90 92
90 84 84 90 88 94 95 90 93 94 92 92 92 88 88 90 91 91 92 94 95 95 95 94 94 95 96 95 97 97 96 96 96 95 94 95 94 94 95 95 96 95 94
95 92 90 86 90 96 98 92 95 96 95 93 93 93 92 93 93 92 92 93 93 94 94 94 95 93 93 94 94 96 97 96 96 95 94 95 96 96 95 95 94 98 96
96 98 95 96 99 98 100 100 99 98 95 94 96 96 94 94 94 93 92 92 91 90 94 95 94 94 94 93 93 95 95 96 98 97 96 94 94 94 95 94 94 95 95
98 100 100 100 100 100 100 99 99 100 99 97 96 95 94 94 93 92 92 90 90 89 88 91 94 94 92 92 93 94 96 96 96 97 97 96 96 95 93 92 93 93 96
99 99 100 100 100 100 100 100 99 100 100 96 96 96 96 95 93 93 91 90 89 89 88 87 91 94 93 92 92 93 93 95 96 96 97 96 96 95 95 94 94 91 93
Wind_Speed
7 6 7 7 8 9 10 10 11 11 9 7 10 8 8 7 6 5 5 5 6 5 4 5 6 4 3 3 3 3 3 3 4 2 2 2 3 5 6 6 7 7 7
7 7 7 8 9 11 12 12 11 12 8 7 5 7 6 5 5 6 6 6 7 6 6 6 6 3 5 4 3 5 4 3 3 5 2 2 5 4 5 7 7 8 7
8 9 8 9 11 11 11 11 9 6 5 5 5 6 5 6 5 6 7 6 6 6 6 6 6 6 5 3 4 4 3 3 3 3 3 2 3 2 5 5 7 8 8
8 8 8 5 4 4 5 6 6 4 6 5 4 2 3 2 4 6 6 6 6 6 6 7 6 7 7 6 5 5 4 3 2 3 3 4 3 3 4 5 8 6 9
4 3 4 5 6 6 7 8 8 6 6 5 4 3 7 5 6 7 6 7 6 6 6 6 6 8 11 8 4 5 4 3 3 3 4 4 5 4 6 6 8 9 9
7 6 6 6 6 6 7 9 8 9 7 6 7 4 4 5 10 12 7 6 7 7 7 6 6 8 8 10 12 10 8 5 4 2 3 5 6 5 4 5 7 8 8
7 7 8 8 10 9 8 8 7 6 6 6 2 4 6 8 11 11 11 6 6 7 7 5 5 5 7 5 7 8 9 10 8 4 5 5 4 4 5 7 8 9 10
11 11 10 11 11 9 8 8 6 4 2 3 3 4 7 6 9 10 10 6 6 7 7 7 6 7 7 6 6 5 6 5 6 5 6 6 6 7 6 7 8 10 9
11 11 10 9 9 7 6 5 3 1 3 3 5 6 5 7 10 11 7 5 6 7 6 7 7 7 11 14 7 7 6 6 7 11 12 12 13 12 10 4 6 7 9
9 9 7 7 5 5 3 2 2 3 4 4 5 5 7 6 10 10 7 3 5 6 5 7 13 11 13 14 9 8 7 7 4 4 4 7 9 8 12 5 5 6 7
5 5 5 4 3 3 1 1 3 4 5 5 5 6 6 7 7 11 10 4 6 6 6 6 7 16 16 16 16 9 9 6 5 5 5 5 6 6 5 5 6 6 7
5 5 4 4 3 2 3 3 4 4 5 5 5 6 5 6 10 10 11 11 11 7 8 7 7 14 18 18 14 16 16 8 4 4 4 5 5 5 6 5 7 7 7
6 6 5 4 4 4 4 5 4 4 3 5 5 6 7 5 5 12 13 13 13 9 8 11 15 16 18 15 19 17 12 6 5 4 6 6 4 5 4 4 5 8 9
6 6 5 5 6 5 3 3 4 4 4 6 6 7 8 7 6 6 6 5 7 7 8 10 10 9 11 10 8 11 8 7 6 6 5 4 2 2 2 2 2 5 5
6 5 5 4 4 5 4 4 4 5 7 7 7 7 9 10 10 12 10 6 6 8 5 7 5 5 6 7 6 7 6 5 5 4 4 4 3 2 2 1 2 3 3
6 5 4 4 3 4 5 7 6 11 13 14 16 13 10 16 23 23 20 18 16 16 5 6 6 6 7 8 8 8 8 8 7 6 5 4 4 4 3 2 2 2 4
5 6 5 5 6 7 7 8 11 8 14 16 18 19 19 22 24 23 22 20 19 13 6 7 7 7 8 8 8 7 8 8 8 6 5 5 5 3 3 3 3 2 4
5 8 5 5 5 5 5 7 7 9 12 11 12 17 19 24 25 25 23 18 5 4 6 9 9 7 7 8 7 7 7 5 5 5 5 5 5 4 3 4 3 2 3
5 4 5 4 3 5 5 6 7 7 8 9 11 10 16 27 28 25 22 9 8 7 6 6 6 6 7 7 7 6 7 7 6 5 5 6 6 5 4 4 4 4 3
5 8 6 5 5 5 6 8 8 8 8 8 8 10 12 14 12 16 12 6 7 6 5 5 5 7 7 7 7 7 7 7 6 5 6 6 6 5 5 4 4 3 3
4 4 6 5 6 6 6 6 7 7 7 8 9 9 16 10 10 10 11 11 12 14 12 9 5 3 4 6 7 6 7 7 7 7 7 6 6 6 5 4 4 4 3
4 5 5 5 5 5 6 6 6 7 7 8 9 10 14 8 9 9 10 10 9 8 8 9 9 7 5 7 6 6 7 7 7 7 7 7 7 7 6 4 4 3 3
3 5 5 5 5 5 4 6 6 6 6 7 8 9 9 9 9 9 9 9 9 8 8 8 8 9 8 8 7 8 6 7 7 7 8 7 7 7 7 5 4 4 3
3 3 4 3 2 4 3 4 4 6 7 7 8 8 8 8 9 10 9 9 9 9 8 8 8 10 10 9 8 7 6 7 4 7 10 9 8 9 7 6 6 5 4
3 3 3 2 2 3 4 5 5 5 5 6 7 7 8 9 9 9 9 9 9 9 11 10 8 10 11 14 13 13 9 10 8 5 6 8 9 11 9 8 8 4 4
1 2 1 2 2 3 3 4 5 4 5 6 7 7 8 9 9 9 9 10 10 12 12 9 11 14 14 11 12 13 13 11 8 8 3 6 7 7 8 10 12 8 6
Wind_Direction
177 167 159 171 167 165 177 173 172 165 165 168 170 168 180 176 171 185 205 195 211 224 231 224 242 222 223 206 195 187 198 187 232 258 229 246 264 263 283 288 288 284 282
163 153 156 155 160 175 181 174 167 174 182 162 152 167 190 164 185 203 211 212 214 221 225 219 234 209 225 213 200 216 214 198 200 265 235 241 234 247 263 288 294 300 288
149 157 171 178 177 184 177 174 162 121 102 117 155 177 177 198 203 222 220 224 223 221 217 211 222 208 223 211 212 220 215 221 212 230 277 248 269 269 298 292 288 288 286
160 167 178 189 157 117 104 100 114 140 144 159 178 128 170 252 274 252 232 230 229 221 217 211 222 211 216 215 212 215 208 216 217 236 264 276 270 284 293 303 306 300 297
133 126 145 125 113 108 109 117 113 95 113 106 85 56 19 308 273 262 237 226 215 221 220 220 219 224 225 207 185 214 195 207 221 243 268 273 287 298 301 307 296 300 300
139 132 118 101 99 110 117 117 105 116 108 85 41 23 297 283 271 268 238 217 212 210 215 223 225 229 235 232 221 210 195 191 212 212 249 272 282 279 279 285 291 308 318
102 93 91 95 94 87 71 62 68 71 60 53 55 276 288 269 272 274 247 219 207 214 214 213 220 222 222 225 223 203 206 219 220 202 246 250 261 257 280 287 289 287 290
87 90 98 103 94 84 80 85 75 69 65 243 251 257 259 271 286 290 262 228 219 220 211 209 209 219 215 198 199 211 220 227 239 245 221 241 242 259 251 275 286 290 285
92 90 85 82 95 94 86 102 176 179 231 237 235 247 264 280 295 298 290 239 238 235 220 211 212 218 223 219 199 219 225 237 245 259 242 245 260 281 292 298 297 305 303
90 95 100 110 109 99 129 148 193 222 251 251 264 254 267 274 283 295 289 205 243 245 232 225 230 220 222 219 204 206 223 236 225 243 257 265 269 271 288 275 283 288 298
95 102 104 101 117 133 213 262 274 270 279 268 269 275 267 253 266 284 289 218 235 248 244 229 220 232 230 220 211 199 213 207 223 227 248 259 269 270 267 260 264 265 278
78 73 64 51 17 349 305 288 281 276 274 278 279 283 262 261 255 262 271 251 234 231 239 237 233 223 231 230 214 213 222 218 204 225 240 259 258 261 262 259 274 274 259
62 47 30 8 356 343 322 310 306 291 270 279 274 278 280 263 260 259 261 262 253 238 235 239 243 243 238 227 222 212 216 207 202 218 237 248 230 238 260 270 282 289 288
47 30 16 7 345 341 326 303 291 285 280 274 274 273 274 273 251 253 254 252 260 250 252 254 247 240 230 226 216 216 215 210 206 219 223 236 253 235 233 244 268 300 300
44 28 15 4 352 331 310 283 283 261 253 279 277 275 284 283 275 252 243 235 229 232 234 253 236 221 219 219 217 214 210 204 206 204 205 219 236 227 244 242 258 294 280
34 16 356 344 334 328 317 323 290 282 291 288 287 280 286 274 281 282 274 265 263 256 210 236 232 228 230 228 222 215 214 213 217 205 205 211 227 217 238 257 244 253 292
25 12 6 1 352 345 343 333 326 324 317 319 315 306 300 297 299 294 284 276 271 257 236 237 231 232 235 232 224 216 213 211 205 200 198 203 210 210 204 243 253 267 295
22 18 10 350 343 340 332 331 326 329 330 332 331 327 322 320 315 304 293 290 269 250 243 256 256 238 235 234 225 216 217 206 196 197 188 192 193 188 201 228 240 241 277
18 12 358 334 329 336 340 341 339 335 339 339 340 350 358 341 328 301 297 278 273 255 249 245 242 242 248 239 230 221 216 209 196 180 193 188 189 178 210 224 237 232 238
12 9 359 351 354 358 352 347 347 341 343 338 338 343 344 340 354 351 329 268 259 257 239 236 242 258 248 232 232 226 218 211 193 192 196 187 182 181 200 207 203 222 244
6 12 1 3 5 2 351 348 347 340 336 342 337 335 338 337 342 350 351 359 11 0 358 353 338 301 263 248 240 225 217 215 204 192 189 187 173 189 198 198 206 212 230
26 10 2 12 1 358 346 353 342 335 344 336 333 331 336 343 341 342 346 345 352 351 341 348 341 343 336 345 299 235 220 218 204 189 185 180 179 189 177 181 195 201 209
42 19 7 14 359 350 344 348 340 331 340 331 329 330 335 337 335 334 337 335 336 336 337 341 335 333 332 332 331 334 262 222 212 188 179 176 177 181 176 177 177 179 195
35 25 12 4 350 340 330 325 323 324 337 329 322 322 326 325 324 324 329 328 328 333 331 326 322 321 325 325 323 317 321 335 239 200 183 178 181 176 173 167 175 174 169
56 28 10 321 345 333 336 331 320 307 321 321 317 320 319 317 319 322 322 325 326 327 323 319 317 316 315 316 305 308 311 323 327 267 191 183 180 176 177 178 167 161 150
59 25 341 329 356 345 328 324 315 308 314 315 312 311 312 315 316 318 321 325 326 319 315 313 308 311 311 306 302 311 316 312 313 327 262 186 175 170 173 176 170 171 157